CAPE
3126 2916 2594 2179 1860 1468 1387 1181 1061 859 632 669 695 790 647 499 407 382 330 280 411 404 454 575 744 895 866 1375 1595 1642 1323 330 3 8 6 6 7 9 13 6 4 13 4
3404 3177 2687 2422 1920 1650 1364 1201 1038 838 714 608 528 550 538 387 248 184 154 111 157 189 176 496 679 501 949 1174 1453 1274 1498 323 1 10 8 9 6 9 8 6 14 4 6
3593 3281 2575 2294 1983 1789 1400 1242 829 836 679 554 571 556 508 336 194 108 72 76 96 136 182 260 257 349 643 770 1095 916 603 56 3 1 8 6 5 9 13 8 2 8 1
3440 2885 2434 2295 1887 1641 1424 1264 1032 914 815 658 630 547 482 291 183 17 0 0 85 93 146 122 144 150 394 239 719 388 227 2 4 3 6 7 6 8 5 4 7 0 0
3502 2666 2401 2253 1871 1698 1424 1269 1095 981 899 859 739 586 479 275 127 18 0 0 83 125 141 104 82 10 0 71 181 331 117 7 5 7 9 7 8 7 4 3 1 3 2
3418 2604 2472 2375 2008 1930 1672 1420 1438 1257 1119 971 768 511 331 152 0 0 0 0 7 54 134 16 11 0 0 0 0 0 0 38 10 5 5 4 6 4 6 5 7 0 0
3324 2546 2510 2409 2085 1991 1901 1776 1695 1604 1449 1309 895 546 163 92 0 0 0 3 0 2 31 18 3 0 0 4 0 0 0 0 1 7 4 6 5 6 2 5 5 0 1
3105 2439 2521 2466 2129 2060 2163 2011 1979 1637 1494 1398 1097 588 0 0 0 0 0 45 7 1 0 2 8 5 1 3 30 11 7 6 3 6 52 24 26 8 1 5 6 0 58
2852 2521 2356 2322 2109 2091 2163 2092 2197 1539 1569 1495 1381 695 1 0 0 0 0 46 23 22 6 0 1 6 0 0 10 17 44 19 0 0 0 0 0 3 8 10 19 14 45
2850 2571 2479 2341 2198 2240 2245 2192 1327 1040 1082 792 799 585 82 5 0 0 0 68 106 49 47 1 0 0 0 0 3 13 20 24 9 3 0 0 0 1 0 67 80 74 86
2749 2557 2462 2320 2509 2208 2066 1697 1380 1154 659 774 583 616 289 20 6 0 0 8 84 59 22 17 0 0 0 0 0 7 6 27 2 20 22 27 27 21 16 35 95 71 79
2725 2529 2387 2063 2137 1635 1721 1127 819 789 568 635 484 235 242 78 1 0 0 0 0 31 22 13 1 0 0 0 0 0 0 0 0 0 0 0 0 4 16 36 44 42 29
1704 1115 1479 1236 1268 935 1084 753 410 724 584 400 244 440 464 332 183 0 0 0 0 0 0 0 0 0 0 0 0 0 0 0 0 0 0 0 0 0 0 0 0 0 0
629 284 374 475 809 724 800 706 521 539 460 288 598 660 443 476 229 98 1 0 0 0 0 1 0 0 0 0 0 0 0 0 0 0 0 0 0 0 0 0 0 0 0
473 368 477 933 416 968 799 414 182 163 103 256 223 259 254 164 71 0 0 72 46 13 2 12 10 7 4 0 0 0 0 0 0 0 0 0 0 4 10 2 0 1 0
517 670 747 651 592 273 101 41 0 0 1 0 0 0 1 0 0 0 1 2 2 1 2 5 7 45 17 49 65 9 2 0 0 8 9 10 5 14 22 56 57 28 10
1079 1341 295 79 97 58 12 0 13 0 1 0 0 0 0 0 0 1 0 0 0 0 6 6 8 4 0 0 0 1 0 0 0 0 2 5 8 6 13 20 36 61 17
215 31 52 59 33 37 50 27 5 7 35 69 0 0 0 0 0 1 0 1 14 1 8 8 10 15 6 7 9 0 0 0 1 0 0 0 0 1 6 25 13 39 28
192 91 237 121 134 95 88 49 41 54 66 65 26 0 1 1 0 0 0 0 67 72 9 8 9 8 8 10 2 3 0 2 0 1 0 0 7 3 0 0 4 0 12
302 126 166 542 207 214 126 83 75 130 188 198 140 77 14 9 16 13 25 111 12 13 23 8 9 5 18 13 5 0 0 0 1 2 4 6 6 20 6 0 0 3 10
113 171 8 83 141 62 57 72 123 179 180 223 179 86 0 0 27 38 50 66 75 79 74 104 55 102 54 14 12 6 6 13 11 7 7 12 8 14 1 0 6 7 15
0 0 0 1 9 11 17 32 76 157 221 239 193 174 0 5 46 61 77 79 66 70 100 76 96 68 45 46 50 57 32 27 38 22 27 7 3 2 6 5 1 0 10
1 0 0 1 4 1 6 37 92 133 162 126 42 40 27 38 54 72 68 65 62 22 10 6 11 14 10 9 17 30 30 24 42 65 87 55 38 4 1 13 3 0 0
8 6 6 10 7 13 40 55 65 3 61 67 78 49 52 52 34 33 43 25 23 18 24 21 23 12 7 0 0 0 0 0 0 0 2 32 80 52 11 4 9 1 6
14 15 13 12 11 14 49 21 7 3 1 7 10 10 2 9 27 16 20 20 28 24 27 17 7 2 0 0 0 0 0 1 0 0 0 0 3 8 20 19 2 1 4
6 12 15 13 11 5 3 3 4 6 8 1 1 5 17 31 22 24 30 42 24 24 18 17 8 1 2 13 0 0 1 1 0 0 1 14 12 3 0 1 1 2 2
CIN
-0 -0 -0 -0 -1 -0 -0 -5 -3 -9 -9 -0 -0 -0 -3 -2 -0 -0 -1 -3 -1 -0 -0 -0 -0 -0 -0 -0 -0 -0 -0 -0 -0 -0 -0 -0 -0 -0 -0 -0 -1 -0 -0
-0 -0 -0 -0 -0 -0 -0 -2 -5 -5 -5 -0 -0 -0 -0 -0 -2 -12 -22 -30 -13 -13 -3 -0 -0 -0 -0 -0 -0 -0 -0 -1 -0 -0 -0 -0 -0 -0 -0 -0 -0 -0 -0
-0 -0 -0 -0 -0 -0 -0 -0 -3 -1 -2 -2 -0 -1 -0 -0 -14 -36 -35 -50 -45 -22 -11 -2 -0 -0 -0 -0 -0 -0 -0 -35 -0 -0 -0 -0 -0 -0 -0 -0 -2 -3 -0
-0 -0 -3 -0 -0 -0 -0 -0 -3 -1 -0 -0 -0 -0 -0 -0 -1 -15 -0 -0 -34 -38 -36 -15 -0 -1 -0 -2 -0 -0 -0 -0 -0 -0 -0 -0 -0 -0 -0 -0 -0 -0 -0
-0 -0 -1 -1 -1 -0 -0 -0 -0 -0 -0 -0 -0 -0 -0 -0 -0 -37 -0 -0 -25 -14 -12 -13 -24 -1 -0 -0 -3 -0 -1 -13 -0 -0 -0 -0 -0 -0 -0 -0 -0 -0 -0
-0 -7 -8 -3 -0 -0 -0 -0 -0 -0 -0 -0 -0 -0 -0 -3 -0 -0 -0 -0 -0 -5 -0 -0 -0 -0 -0 -0 -0 -0 -0 -0 -0 -0 -0 -0 -0 -0 -0 -0 -0 -0 -0
-0 -17 -13 -2 -0 -0 -0 -0 -0 -0 -0 -0 -0 -0 -9 -24 -0 -0 -0 -0 -0 -0 -8 -2 -0 -0 -0 -0 -0 -0 -0 -0 -0 -0 -0 -0 -0 -0 -0 -0 -0 -0 -2
-0 -5 -3 -5 -0 -0 -0 -0 -0 -0 -0 -0 -0 -0 -0 -0 -0 -0 -0 -0 -0 -0 -0 -0 -0 -0 -0 -0 -27 -5 -0 -0 -1 -0 -0 -3 -4 -0 -0 -0 -3 -0 -2
-0 -0 -0 -0 -1 -1 -0 -0 -0 -3 -1 -0 -0 -0 -0 -0 -0 -0 -0 -0 -0 -0 -0 -0 -0 -0 -0 -0 -0 -0 -4 -4 -0 -0 -0 -0 -0 -5 -2 -0 -7 -11 -0
-0 -0 -0 -0 -0 -0 -0 -0 -8 -24 -15 -14 -0 -0 -45 -0 -0 -0 -0 -0 -0 -0 -0 -0 -0 -0 -0 -0 -0 -0 -0 -0 -0 -0 -0 -0 -0 -0 -0 -0 -0 -0 -0
-8 -0 -0 -0 -0 -0 -0 -4 -1 -2 -20 -5 -3 -0 -3 -0 -0 -0 -0 -17 -0 -0 -10 -30 -0 -0 -0 -0 -0 -0 -0 -2 -0 -0 -0 -0 -0 -0 -0 -0 -0 -0 -1
-68 -74 -1 -2 -0 -3 -0 -15 -33 -4 -24 -6 -4 -9 -7 -61 -0 -0 -0 -0 -0 -56 -3 -0 -0 -0 -0 -0 -0 -0 -0 -0 -0 -0 -0 -0 -0 -0 -0 -0 -0 -0 -0
-165 -186 -96 -23 -3 -21 -5 -24 -68 -5 -0 -9 -14 -0 -0 -2 -23 -0 -0 -0 -0 -0 -6 -7 -0 -0 -0 -0 -0 -0 -0 -0 -0 -0 -0 -0 -0 -0 -0 -0 -0 -0 -0
-225 -244 -190 -34 -2 -12 -4 -11 -31 -17 -15 -39 -1 -0 -0 -0 -19 -1 -0 -0 -0 -0 -0 -8 -0 -0 -0 -0 -0 -0 -0 -0 -0 -0 -0 -0 -0 -0 -0 -0 -0 -0 -0
-185 -191 -81 -35 -60 -1 -0 -17 -84 -81 -33 -44 -27 -33 -13 -8 -2 -0 -0 -11 -1 -0 -1 -3 -2 -0 -0 -0 -0 -0 -0 -0 -0 -0 -0 -0 -0 -0 -0 -0 -0 -0 -0
-43 -10 -1 -11 -43 -27 -59 -106 -0 -0 -0 -0 -0 -0 -0 -0 -0 -0 -0 -0 -0 -0 -0 -0 -6 -5 -3 -1 -3 -41 -0 -0 -0 -10 -0 -0 -0 -0 -0 -0 -0 -0 -0
-2 -0 -1 -90 -46 -82 -125 -12 -106 -0 -0 -0 -0 -0 -0 -0 -0 -0 -0 -0 -0 -0 -0 -0 -0 -0 -0 -0 -0 -11 -0 -0 -0 -0 -8 -4 -4 -17 -0 -0 -0 -0 -0
-4 -71 -60 -22 -24 -21 -51 -88 -73 -11 -35 -22 -0 -0 -0 -0 -0 -0 -0 -0 -18 -4 -0 -0 -0 -0 -0 -0 -1 -0 -0 -0 -0 -0 -0 -0 -0 -14 -9 -0 -0 -0 -0
-19 -41 -4 -1 -0 -8 -7 -33 -29 -24 -6 -0 -0 -0 -0 -0 -0 -0 -0 -0 -1 -1 -17 -0 -0 -0 -0 -0 -0 -0 -0 -0 -0 -0 -0 -0 -0 -6 -0 -0 -5 -0 -3
-16 -41 -62 -0 -0 -0 -3 -15 -11 -0 -0 -0 -0 -0 -55 -27 -17 -44 -27 -1 -7 -7 -18 -34 -32 -0 -50 -0 -0 -0 -0 -0 -0 -0 -0 -0 -0 -0 -0 -0 -0 -0 -0
-1 -0 -20 -7 -0 -4 -20 -15 -0 -0 -0 -0 -0 -1 -0 -0 -0 -0 -0 -0 -0 -0 -0 -0 -3 -0 -0 -24 -0 -0 -0 -0 -0 -0 -0 -0 -0 -0 -1 -0 -0 -0 -0
-0 -0 -0 -28 -0 -0 -0 -0 -0 -0 -0 -0 -0 -21 -0 -2 -0 -0 -0 -0 -0 -0 -0 -0 -0 -0 -0 -0 -0 -0 -0 -0 -1 -3 -1 -2 -1 -0 -0 -2 -12 -0 -44
-0 -0 -0 -0 -0 -1 -0 -0 -0 -0 -0 -0 -0 -0 -0 -0 -0 -0 -0 -0 -0 -0 -7 -0 -3 -0 -0 -0 -0 -4 -1 -7 -1 -0 -1 -2 -3 -1 -0 -0 -1 -0 -12
-0 -0 -0 -0 -0 -0 -0 -0 -0 -1 -1 -0 -0 -0 -0 -0 -0 -0 -0 -1 -2 -0 -0 -0 -0 -0 -0 -0 -0 -0 -0 -0 -0 -0 -0 -3 -0 -0 -0 -0 -0 -0 -0
-1 -0 -2 -0 -0 -1 -0 -3 -0 -8 -47 -17 -25 -23 -0 -0 -0 -0 -0 -0 -0 -0 -0 -0 -0 -0 -0 -0 -0 -0 -0 -0 -0 -0 -0 -0 -0 -6 -0 -0 -0 -0 -0
-0 -0 -0 -0 -0 -0 -1 -0 -0 -0 -0 -0 -0 -0 -0 -0 -0 -0 -0 -0 -0 -0 -0 -0 -0 -0 -1 -0 -0 -0 -0 -0 -0 -0 -0 -0 -0 -0 -0 -0 -0 -0 -0
Wind_Speed
7 6 5 6 7 6 6 6 5 4 4 4 4 4 4 3 2 3 3 2 5 3 4 4 5 4 5 4 6 4 6 6 6 3 2 3 3 6 7 6 7 8 9
8 6 6 6 6 7 6 6 6 5 5 4 4 4 4 3 2 3 3 0 4 4 5 5 5 3 5 4 5 7 6 7 5 7 3 3 2 5 7 5 6 6 8
8 7 7 7 7 7 6 5 5 5 5 5 5 5 5 4 4 3 2 2 3 3 3 4 4 4 3 3 4 5 5 5 6 6 4 2 2 3 7 6 4 6 7
8 7 7 7 7 7 6 6 6 6 6 6 6 5 5 5 4 2 2 3 2 2 0 2 4 4 1 2 3 6 6 7 7 7 5 4 3 3 4 7 8 7 7
8 7 7 7 7 6 6 6 6 7 7 6 5 5 4 6 5 4 3 3 3 3 3 3 3 7 7 5 2 4 7 6 7 7 6 4 4 6 9 5 5 6 6
9 8 8 8 8 7 7 7 7 7 6 6 6 7 5 6 10 1 6 4 4 4 4 3 5 8 6 6 6 10 3 8 8 7 6 8 8 7 6 9 8 8 4
9 9 9 8 8 7 7 7 7 7 7 8 8 7 6 1 6 5 5 4 4 3 3 3 3 6 4 6 6 5 5 6 3 7 9 10 10 12 7 9 10 8 6
9 7 8 10 9 8 7 8 7 6 8 8 8 7 5 4 7 7 5 6 4 4 2 2 2 3 3 2 6 5 5 7 8 7 7 10 10 11 11 11 10 7 4
7 6 7 8 9 9 8 8 5 5 6 8 7 7 6 5 6 7 6 8 6 5 3 3 3 4 6 4 5 5 7 6 6 7 7 8 3 7 11 9 10 9 7
8 6 5 7 8 8 7 4 5 4 5 3 7 5 6 8 8 9 9 8 6 6 6 5 4 5 8 5 6 6 6 5 6 7 7 6 7 8 8 11 9 10 7
10 4 4 5 6 7 7 6 6 5 2 4 6 6 4 8 9 8 8 8 7 6 5 6 6 10 8 8 6 5 3 5 4 7 7 7 8 9 9 10 9 8 5
12 13 4 3 6 5 7 5 3 4 3 5 5 5 4 6 9 11 10 9 3 4 5 3 2 10 9 8 6 3 2 5 6 7 7 7 7 7 8 9 8 8 8
11 10 8 2 4 2 5 6 4 4 5 5 4 8 6 6 7 8 10 10 7 4 7 3 6 9 7 7 9 4 5 7 7 7 7 6 6 5 5 5 5 5 6
13 12 12 6 7 7 7 6 5 5 4 5 5 6 4 4 5 6 7 6 7 9 10 7 6 6 10 6 9 8 9 9 9 8 8 7 7 7 7 7 7 7 7
9 10 10 10 9 6 6 4 3 1 2 4 5 4 4 5 1 3 2 6 7 9 9 10 9 8 9 8 10 10 10 10 10 8 9 9 8 9 9 10 9 9 9
8 8 8 9 8 7 5 6 3 1 1 1 4 6 1 3 2 2 5 6 7 4 4 6 7 8 9 10 11 11 10 10 10 7 11 10 11 10 10 9 9 10 10
8 9 8 6 6 6 6 4 5 6 8 9 10 9 8 11 8 7 7 8 6 6 5 6 7 7 7 7 7 7 4 7 5 4 8 9 5 10 10 11 11 10 11
5 5 6 5 6 6 5 4 3 4 4 7 10 10 11 10 5 6 7 7 5 4 5 6 7 6 5 7 6 5 3 2 4 5 5 6 5 5 7 11 11 11 14
4 4 4 5 3 3 2 3 5 4 5 4 3 6 9 7 6 4 6 9 6 3 3 5 6 6 6 5 3 4 5 5 6 7 8 5 4 4 5 9 8 16 14
4 2 3 6 6 7 7 6 6 6 6 6 4 3 8 7 8 10 11 6 5 4 2 4 4 4 5 4 3 3 4 5 5 8 8 8 9 11 10 11 13 11 13
6 3 1 6 6 6 5 6 6 6 7 6 3 4 5 6 4 4 4 5 5 4 4 3 4 4 4 5 5 5 6 6 7 7 7 8 8 11 10 9 12 15 15
5 5 4 6 5 4 4 5 6 6 7 6 2 5 7 6 3 3 4 4 5 6 7 6 6 6 6 6 2 4 6 6 7 7 7 8 7 8 10 10 9 9 9
6 5 5 5 5 1 5 7 5 5 4 1 2 5 3 4 4 5 6 6 6 7 6 5 6 7 8 7 7 7 9 9 6 5 3 5 7 8 8 9 11 10 8
6 6 7 6 5 7 4 2 2 5 7 7 7 7 7 8 8 8 8 8 8 8 8 8 8 10 9 9 9 9 9 9 8 9 12 9 6 3 5 7 8 10 12
7 6 6 6 6 4 6 8 9 9 8 8 8 8 7 7 7 7 7 6 7 7 9 8 9 11 11 10 9 9 8 8 8 8 5 6 7 9 8 7 8 10 13
7 8 7 7 7 7 7 6 7 8 9 7 5 5 6 6 7 7 7 8 7 8 8 7 7 8 6 9 10 8 5 6 8 9 7 6 7 4 3 5 8 5 7
Wind_Direction
210 197 192 182 165 180 179 167 176 168 188 216 220 202 193 191 211 244 260 253 253 253 246 261 267 263 263 225 217 181 191 157 127 100 110 116 103 123 125 123 178 126 109
198 190 198 186 182 180 187 171 162 175 178 189 211 225 223 208 217 232 223 226 299 307 280 267 276 283 278 225 210 182 203 147 126 137 125 126 111 157 142 152 178 127 112
191 187 184 187 190 190 190 168 171 178 192 210 218 227 224 221 210 197 249 218 220 251 317 312 297 271 265 286 214 172 155 142 128 145 126 118 106 142 142 136 92 79 100
191 190 179 194 190 192 188 181 184 198 208 219 226 228 230 232 229 202 210 211 210 185 37 293 309 296 45 266 204 174 149 138 137 144 138 138 133 153 178 162 159 158 163
190 193 188 186 185 191 195 192 198 204 212 216 211 231 243 241 219 206 184 199 192 194 175 237 66 32 27 16 341 158 156 155 158 162 154 144 155 157 179 170 163 165 153
185 187 185 185 187 199 203 207 214 221 227 225 215 214 213 263 107 189 291 176 185 199 194 172 132 164 110 60 33 33 28 176 171 170 169 176 177 175 188 179 171 165 184
184 179 183 189 195 203 213 219 228 235 238 235 234 216 206 4 152 196 258 222 185 168 201 179 211 100 212 121 94 98 82 49 158 185 181 187 176 183 165 174 182 186 202
179 185 189 186 193 204 225 234 238 251 251 246 241 213 199 189 173 189 228 258 214 195 213 213 225 158 85 146 169 162 167 171 185 200 203 186 194 175 182 196 186 196 259
175 185 199 206 199 191 218 244 260 252 251 263 266 220 194 193 174 188 206 233 204 217 206 242 238 196 121 298 205 177 172 174 106 47 36 82 151 166 175 179 183 195 209
170 182 214 223 229 220 207 220 233 223 233 228 258 253 215 196 186 182 200 234 215 221 194 205 234 322 152 214 235 189 205 179 176 164 161 147 178 165 194 208 192 202 212
133 152 220 243 230 229 204 173 202 218 255 254 246 266 228 211 192 191 200 242 232 199 229 200 202 165 179 208 251 240 243 163 169 195 186 186 184 176 197 218 226 240 205
138 130 164 215 245 192 202 182 190 251 219 256 247 260 240 192 204 197 201 232 283 265 232 243 255 170 185 193 226 108 86 259 211 212 206 202 201 205 208 203 224 253 286
99 87 94 188 230 192 188 188 176 217 270 234 238 254 192 197 185 191 205 217 244 253 264 235 118 157 170 197 228 177 189 232 242 237 227 214 211 206 189 167 198 219 243
133 139 129 179 207 206 206 196 209 228 240 280 297 280 303 211 204 192 207 212 227 233 257 256 256 230 208 234 169 189 220 226 236 240 239 226 205 201 200 205 205 201 223
133 134 155 170 196 191 236 249 238 242 327 255 236 230 241 260 349 35 335 235 224 217 220 233 223 225 229 212 226 220 211 220 226 234 242 236 227 211 206 216 216 219 227
144 156 180 182 176 205 187 170 183 289 164 253 283 297 281 302 337 37 330 297 276 258 199 223 234 241 230 234 231 230 228 216 225 214 239 232 231 222 227 223 222 224 229
183 185 171 153 182 173 183 202 190 183 217 223 231 239 241 298 308 327 318 293 275 159 217 218 228 226 234 233 237 257 225 220 200 195 274 258 249 253 227 229 230 224 232
110 67 140 170 180 191 180 178 231 239 230 185 214 223 212 235 264 293 304 274 224 224 230 228 239 244 239 249 250 232 230 173 218 225 237 239 273 277 244 242 233 218 229
134 185 214 190 196 270 237 227 234 218 247 250 228 198 188 205 215 227 230 255 295 280 244 245 251 248 241 237 212 217 194 203 202 207 206 200 213 254 251 273 250 236 223
312 19 313 255 220 215 227 233 250 242 236 251 256 316 153 179 211 198 208 210 262 275 280 279 284 263 252 257 229 186 189 199 208 224 217 217 212 229 232 247 251 251 235
257 201 215 255 261 282 295 289 274 286 271 256 274 64 41 289 308 337 314 346 337 348 305 142 224 241 214 198 201 206 242 246 234 225 223 227 218 228 228 237 254 246 249
274 275 294 280 304 277 293 311 290 269 252 265 294 160 205 258 6 2 352 353 10 359 9 4 333 341 2 351 0 184 235 249 253 245 244 237 241 228 242 235 252 268 301
308 301 279 261 264 324 261 246 275 298 309 234 50 50 47 35 38 20 24 28 33 43 36 25 6 9 17 357 359 333 339 357 354 318 279 251 239 232 233 246 242 243 244
4 350 356 12 344 314 304 314 72 25 22 51 53 46 40 37 38 32 28 27 35 39 43 37 39 30 18 12 11 10 13 359 353 337 342 315 307 266 243 244 245 239 238
37 44 48 41 36 24 41 51 57 60 57 57 62 66 52 41 52 37 46 46 46 42 50 41 30 33 32 30 28 18 4 356 7 327 337 320 311 306 287 272 246 247 249
59 52 53 56 59 57 63 82 91 86 83 86 92 92 72 75 65 54 45 36 48 58 60 52 41 42 22 52 39 22 359 8 10 346 337 16 11 23 16 20 27 11 11